Weather History for KSLN - March, 2013

Change the Weather History Date:

Friday, March 29, 2013

  Actual Average Record
Temperature  
Mean Temperature 58 °F 50 °F  
Max Temperature 74 °F 62 °F 89 °F (1967)
Min Temperature 41 °F 38 °F 18 °F (1969)
Degree Days  
Heating Degree Days 7 16  
Month to date heating degree days 709 578  
Since 1 July heating degree days 4331 4419  
Cooling Degree Days 0 0  
Month to date cooling degree days 0 0  
Year to date cooling degree days 0 0  
Growing Degree Days 7 (Base 50)    
Moisture  
Dew Point 44 °F    
Average Humidity 59    
Maximum Humidity 79    
Minimum Humidity 38    
Precipitation  
Precipitation 0.00 in 0.09 in 1.04 in (1993)
Month to date precipitation 0.40 2.20  
Year to date precipitation 3.67 4.00  
Sea Level Pressure  
Sea Level Pressure 30.10 in    
Wind  
Wind Speed 9 mph (ESE)    
Max Wind Speed 20 mph    
Max Gust Speed 28 mph    
Visibility 10 miles    
Events      
T = Trace of Precipitation, MM = Missing Value Source: NWS Daily Summary

Daily Weather History Graph

Daily Weather History Graph

Search for Another Location

Airport or City:

Trip Planner

Search our weather history database for the weather conditions in past years. The results will help you decide how hot, cold, wet, or windy it might be!

Date:

Astronomy

Mar. 29, 2013 Rise Set
Actual Time 7:19 AM CDT 7:51 PM CDT
Civil Twilight 6:52 AM CDT 8:18 PM CDT
Nautical Twilight 6:21 AM CDT 8:49 PM CDT
Astronomical Twilight 5:49 AM CDT 9:22 PM CDT
Moon 10:51 PM CDT (3/29) 8:31 AM CDT (3/29)
Length of Visible Light 13h 25m
Length of Day
12h 32m
Waning Gibbous, 93% of the Moon is Illuminated
Mar 29
Waning Gibbous
Apr 2
Last Quarter
Apr 10
New
Apr 18
First Quarter
Apr 25
Full

Hourly Weather History & Observations

Time (CDT) Temp. Windchill Dew Point Humidity Pressure Visibility Wind Dir Wind Speed Gust Speed Precip Events Conditions
12:53 AM 50.0 °F - 37.9 °F 63% 30.14 in 10.0 mi East 5.8 mph - N/A   Clear
1:53 AM 50.0 °F - 37.9 °F 63% 30.14 in 10.0 mi Calm Calm - N/A   Scattered Clouds
2:53 AM 44.1 °F 41.5 °F 36.0 °F 73% 30.15 in 10.0 mi North 4.6 mph - N/A   Mostly Cloudy
3:53 AM 46.0 °F - 37.0 °F 71% 30.13 in 10.0 mi Calm Calm - N/A   Overcast
4:53 AM 48.0 °F - 37.9 °F 68% 30.13 in 10.0 mi Calm Calm - N/A   Overcast
5:53 AM 46.0 °F - 37.0 °F 71% 30.12 in 9.0 mi Calm Calm - N/A   Clear
6:53 AM 41.0 °F 38.0 °F 35.1 °F 79% 30.14 in 8.0 mi North 4.6 mph - N/A   Clear
7:53 AM 44.1 °F - 37.0 °F 76% 30.16 in 6.0 mi Calm Calm - N/A   Haze
8:53 AM 48.9 °F - 39.9 °F 71% 30.17 in 7.0 mi ESE 6.9 mph - N/A   Clear
9:53 AM 54.0 °F - 44.1 °F 69% 30.17 in 9.0 mi SE 5.8 mph - N/A   Clear
10:53 AM 57.9 °F - 46.9 °F 67% 30.16 in 10.0 mi ESE 4.6 mph - N/A   Clear
11:53 AM 64.9 °F - 50.0 °F 58% 30.14 in 10.0 mi ESE 13.8 mph - N/A   Clear
12:53 PM 69.1 °F - 48.9 °F 49% 30.12 in 10.0 mi ESE 13.8 mph - N/A   Clear
1:53 PM 71.1 °F - 48.9 °F 45% 30.09 in 10.0 mi ESE 12.7 mph 20.7 mph N/A   Partly Cloudy
2:53 PM 72.0 °F - 48.9 °F 44% 30.08 in 10.0 mi ESE 15.0 mph 21.9 mph N/A   Partly Cloudy
3:53 PM 72.0 °F - 48.9 °F 44% 30.06 in 10.0 mi ESE 13.8 mph - N/A   Partly Cloudy
4:53 PM 73.0 °F - 46.0 °F 38% 30.04 in 10.0 mi SE 10.4 mph 19.6 mph N/A   Partly Cloudy
5:53 PM 72.0 °F - 46.0 °F 40% 30.04 in 10.0 mi SE 13.8 mph - N/A   Clear
6:53 PM 69.1 °F - 46.9 °F 45% 30.05 in 10.0 mi ESE 12.7 mph - N/A   Clear
7:53 PM 64.9 °F - 48.9 °F 56% 30.04 in 10.0 mi SE 10.4 mph - N/A   Clear
8:53 PM 62.1 °F - 48.9 °F 62% 30.02 in 10.0 mi SE 12.7 mph - N/A   Clear
9:53 PM 59.0 °F - 48.9 °F 69% 30.04 in 10.0 mi SE 12.7 mph - N/A   Clear
10:53 PM 59.0 °F - 50.0 °F 72% 30.03 in 10.0 mi SSE 17.3 mph - N/A   Clear
11:53 PM 57.9 °F - 50.0 °F 75% 30.01 in 10.0 mi SSE 11.5 mph - N/A   Clear